User: anonymous   Login
Location: Unspecified
(0.0000°N, 0.0000°E)
Time: 13:13:21
(UTC+00:00)
Language:

Hamsat - Orbit

View from above orbital plane
View from above orbital plane
View from above satellite
View from above satellite

Ground track
Ground track

The orbit data is extracted from the following two-line orbital elements,

1 28650U 05017B   18347.86295679 +.00000221 +00000-0 +29185-4 0  9993
2 28650 097.7242 311.2774 0024500 126.4397 233.9084 14.89038404737144
Epoch (UTC): 13 December 2018 20:42:39
Eccentricity: 0.0024500
inclination: 97.7242°
perigee height: 584 km
apogee height: 618 km
right ascension of ascending node: 311.2774°
argument of perigee: 126.4397°
revolutions per day: 14.89038404
mean anomaly at epoch: 233.9084°
orbit number at epoch: 73714

The dashed part of the orbit path shows where the satellite is in the earth's shadow,  

DLR